• In Italy
  • List of Countries
  • For 7 days
  • Water Temperature
  • Satellite Maps
  • Weather Map
  • Weather Widgets
  • user-avatar
    Login

    Hourly Weather Saidpur

    Today, 18 December, Monday

    Time Temperature Precipitation Wind Pressure Humidity
    00:00 +21°C° 0 mm 2 mps 760 mmHg 62%
    01:00 +21°C° 0 mm 2 mps 760 mmHg 59%
    02:00 +20°C° 0 mm 2 mps 760 mmHg 57%
    03:00 +20°C° 0 mm 2 mps 760 mmHg 55%
    04:00 +19°C° 0 mm 2 mps 760 mmHg 56%
    05:00 +19°C° 0 mm 2 mps 760 mmHg 57%
    06:00 +18°C° 0 mm 2 mps 760 mmHg 57%
    07:00 +19°C° 0 mm 2 mps 761 mmHg 56%
    08:00 +20°C° 0 mm 2 mps 761 mmHg 55%
    09:00 +21°C° 0 mm 2 mps 761 mmHg 53%
    10:00 +23°C° 0 mm 2 mps 761 mmHg 52%
    11:00 +25°C° 0 mm 2 mps 761 mmHg 51%
    12:00 +27°C° 0 mm 2 mps 761 mmHg 50%
    13:00 +27°C° 0 mm 1 mps 760 mmHg 48%
    14:00 +27°C° 0 mm 1 mps 760 mmHg 46%
    15:00 +28°C° 0 mm 1 mps 759 mmHg 43%
    16:00 +27°C° 0 mm 1 mps 759 mmHg 47%
    17:00 +26°C° 0 mm 2 mps 759 mmHg 50%
    18:00 +25°C° 0 mm 2 mps 759 mmHg 54%
    19:00 +24°C° 0 mm 2 mps 760 mmHg 56%
    20:00 +23°C° 0 mm 2 mps 760 mmHg 58%
    21:00 +23°C° 0 mm 2 mps 760 mmHg 60%
    22:00 +21°C° 0 mm 2 mps 760 mmHg 61%
    23:00 +21°C° 0 mm 2 mps 761 mmHg 62%

    Tomorrow, 19 December, Tuesday

    Time Temperature Precipitation Wind Pressure Humidity
    00:00 +20°C° 0 mm 2 mps 761 mmHg 63%
    01:00 +20°C° 0 mm 2 mps 760 mmHg 63%
    02:00 +20°C° 0 mm 2 mps 760 mmHg 63%
    03:00 +19°C° 0 mm 2 mps 760 mmHg 63%
    04:00 +19°C° 0 mm 2 mps 760 mmHg 64%
    05:00 +19°C° 0 mm 2 mps 760 mmHg 66%
    06:00 +18°C° 0 mm 2 mps 760 mmHg 67%
    07:00 +19°C° 0 mm 2 mps 761 mmHg 64%
    08:00 +21°C° 0 mm 2 mps 761 mmHg 61%
    09:00 +23°C° 0 mm 2 mps 762 mmHg 59%
    10:00 +24°C° 0 mm 2 mps 761 mmHg 56%
    11:00 +25°C° 0 mm 2 mps 761 mmHg 53%
    12:00 +27°C° 0 mm 2 mps 761 mmHg 50%
    13:00 +27°C° 0 mm 2 mps 761 mmHg 48%
    14:00 +28°C° 0 mm 2 mps 760 mmHg 46%
    15:00 +28°C° 0 mm 1 mps 759 mmHg 44%
    16:00 +27°C° 0 mm 1 mps 760 mmHg 48%
    17:00 +26°C° 0 mm 1 mps 760 mmHg 51%
    18:00 +25°C° 0 mm 1 mps 760 mmHg 54%
    19:00 +24°C° 0 mm 1 mps 760 mmHg 57%
    20:00 +24°C° 0 mm 1 mps 761 mmHg 59%
    21:00 +23°C° 0 mm 1 mps 761 mmHg 61%
    22:00 +23°C° 0 mm 1 mps 761 mmHg 63%
    23:00 +22°C° 0 mm 1 mps 761 mmHg 64%

    Day after tomorrow, 20 December, Wednesday

    Time Temperature Precipitation Wind Pressure Humidity
    00:00 +21°C° 0 mm 2 mps 761 mmHg 66%
    01:00 +20°C° 0 mm 2 mps 761 mmHg 68%
    02:00 +20°C° 0 mm 2 mps 761 mmHg 70%
    03:00 +20°C° 0 mm 2 mps 760 mmHg 72%
    04:00 +19°C° 0 mm 2 mps 760 mmHg 73%
    05:00 +19°C° 0 mm 2 mps 760 mmHg 74%
    06:00 +19°C° 0 mm 2 mps 761 mmHg 75%
    07:00 +20°C° 0 mm 2 mps 761 mmHg 71%
    08:00 +21°C° 0 mm 2 mps 762 mmHg 66%
    09:00 +23°C° 0 mm 2 mps 763 mmHg 61%
    10:00 +24°C° 0 mm 2 mps 763 mmHg 56%
    11:00 +26°C° 0 mm 2 mps 762 mmHg 52%
    12:00 +27°C° 0 mm 2 mps 762 mmHg 47%
    13:00 +28°C° 0 mm 2 mps 761 mmHg 45%
    14:00 +28°C° 0 mm 1 mps 760 mmHg 42%
    15:00 +29°C° 0 mm 1 mps 760 mmHg 40%
    16:00 +28°C° 0 mm 1 mps 760 mmHg 43%
    17:00 +26°C° 0 mm 1 mps 760 mmHg 46%
    18:00 +23°C° 0 mm 0 mps 760 mmHg 49%
    19:00 +23°C° 0 mm 0 mps 761 mmHg 51%
    20:00 +24°C° 0 mm 1 mps 761 mmHg 52%
    21:00 +24°C° 0 mm 1 mps 761 mmHg 54%
    22:00 +23°C° 0 mm 1 mps 761 mmHg 56%
    23:00 +23°C° 0 mm 1 mps 761 mmHg 57%

    21 December, Thursday

    Time Temperature Precipitation Wind Pressure Humidity
    00:00 +22°C° 0 mm 1 mps 761 mmHg 59%
    01:00 +22°C° 0 mm 1 mps 761 mmHg 61%
    02:00 +21°C° 0 mm 1 mps 761 mmHg 63%
    03:00 +21°C° 0 mm 1 mps 760 mmHg 65%
    04:00 +21°C° 0 mm 1 mps 760 mmHg 67%
    05:00 +20°C° 0 mm 1 mps 760 mmHg 69%
    06:00 +20°C° 0 mm 1 mps 761 mmHg 70%
    07:00 +20°C° 0 mm 2 mps 761 mmHg 66%
    08:00 +21°C° 0 mm 2 mps 762 mmHg 62%
    09:00 +23°C° 0 mm 2 mps 763 mmHg 58%
    10:00 +25°C° 0 mm 2 mps 762 mmHg 53%
    11:00 +26°C° 0 mm 1 mps 762 mmHg 49%
    12:00 +28°C° 0 mm 1 mps 761 mmHg 44%
    13:00 +28°C° 0 mm 1 mps 760 mmHg 42%
    14:00 +29°C° 0 mm 1 mps 760 mmHg 40%
    15:00 +27°C° 0 mm 0 mps 759 mmHg 38%
    16:00 +28°C° 0 mm 1 mps 759 mmHg 41%
    17:00 +27°C° 0 mm 1 mps 759 mmHg 44%
    18:00 +26°C° 0 mm 1 mps 759 mmHg 46%
    19:00 +25°C° 0 mm 1 mps 759 mmHg 48%
    20:00 +25°C° 0 mm 1 mps 760 mmHg 50%
    21:00 +24°C° 0 mm 1 mps 760 mmHg 51%
    22:00 +24°C° 0 mm 1 mps 760 mmHg 53%
    23:00 +23°C° 0 mm 1 mps 760 mmHg 54%

    22 December, Friday

    Time Temperature Precipitation Wind Pressure Humidity
    00:00 +23°C° 0 mm 1 mps 760 mmHg 56%
    01:00 +22°C° 0 mm 1 mps 759 mmHg 58%
    02:00 +22°C° 0 mm 1 mps 759 mmHg 60%
    03:00 +21°C° 0 mm 1 mps 758 mmHg 62%
    04:00 +21°C° 0 mm 1 mps 758 mmHg 64%
    05:00 +20°C° 0 mm 1 mps 759 mmHg 65%
    06:00 +20°C° 0 mm 1 mps 759 mmHg 67%
    07:00 +21°C° 0 mm 1 mps 759 mmHg 64%
    08:00 +22°C° 0 mm 1 mps 760 mmHg 60%
    09:00 +23°C° 0 mm 1 mps 761 mmHg 57%
    10:00 +25°C° 0 mm 1 mps 760 mmHg 52%
    11:00 +26°C° 0 mm 1 mps 760 mmHg 48%
    12:00 +28°C° 0 mm 1 mps 759 mmHg 43%
    13:00 +28°C° 0 mm 1 mps 759 mmHg 42%
    14:00 +28°C° 0 mm 1 mps 758 mmHg 40%
    15:00 +29°C° 0 mm 2 mps 757 mmHg 38%
    16:00 +28°C° 0 mm 2 mps 757 mmHg 41%
    17:00 +27°C° 0 mm 1 mps 757 mmHg 44%
    18:00 +26°C° 0 mm 1 mps 757 mmHg 46%
    19:00 +25°C° 0 mm 1 mps 758 mmHg 48%
    20:00 +24°C° 0 mm 1 mps 758 mmHg 50%
    21:00 +24°C° 0 mm 1 mps 759 mmHg 52%
    22:00 +23°C° 0 mm 1 mps 758 mmHg 53%
    23:00 +23°C° 0 mm 1 mps 758 mmHg 55%

    23 December, Saturday

    Time Temperature Precipitation Wind Pressure Humidity
    00:00 +22°C° 0 mm 1 mps 758 mmHg 57%
    01:00 +22°C° 0 mm 1 mps 758 mmHg 58%
    02:00 +21°C° 0 mm 1 mps 757 mmHg 60%
    03:00 +21°C° 0 mm 1 mps 757 mmHg 62%
    04:00 +21°C° 0 mm 1 mps 757 mmHg 64%
    05:00 +20°C° 0 mm 1 mps 757 mmHg 65%
    06:00 +20°C° 0 mm 1 mps 757 mmHg 67%
    07:00 +21°C° 0 mm 1 mps 758 mmHg 63%
    08:00 +22°C° 0 mm 1 mps 759 mmHg 60%
    09:00 +23°C° 0 mm 1 mps 759 mmHg 56%
    10:00 +24°C° 0 mm 1 mps 759 mmHg 51%
    11:00 +26°C° 0 mm 1 mps 758 mmHg 46%
    12:00 +27°C° 0 mm 1 mps 758 mmHg 41%
    13:00 +28°C° 0 mm 1 mps 757 mmHg 38%
    14:00 +28°C° 0 mm 1 mps 756 mmHg 36%
    15:00 +28°C° 0 mm 2 mps 756 mmHg 33%
    16:00 +27°C° 0 mm 2 mps 756 mmHg 35%
    17:00 +26°C° 0 mm 2 mps 756 mmHg 37%
    18:00 +25°C° 0 mm 1 mps 756 mmHg 40%
    19:00 +24°C° 0 mm 1 mps 757 mmHg 41%
    20:00 +24°C° 0 mm 1 mps 757 mmHg 42%
    21:00 +23°C° 0 mm 1 mps 757 mmHg 44%
    22:00 +23°C° 0 mm 1 mps 757 mmHg 46%
    23:00 +22°C° 0 mm 1 mps 757 mmHg 48%
    Show more